Weather in Chirkey

Russia / Republic of Dagestan     42°57′43″N   46°58′39″E
temp.,
°C
wind,
m/s
gust,
m/s
humid.,
%
clouds,
%
prec.,
mm/h
press.,
hPa
HPBL,
m
11 april, sun
sun1100:00+8nne117768 0.0 102086
03:00+6nw118298 0.0 102023
06:00+6ese227940 0.0 1020101
09:00+11e34625 0.0 1018465
12:00+17e574355 0.0 1015739
15:00+18ese584097 0.0 1014683
18:00+14ne1154100 0.0 101433
21:00+13nw225975 0.0 101442
12 april, mon
mon1200:00+11nnw22697 0.0 101412
03:00+10w1177100 0.0 101613
06:00+10nne0177100 0.0 101615
09:00+13nnw3365100 0.0 1018596
12:00+16nne4358100 0.0 10181164
15:00+15n336236 0.1 1018924
18:00+14n1169100 0.1 1019259
21:00+12nw22810 0.1 102018
13 april, tue
tue1300:00+10wnw118911 0.0 102015
03:00+9n119311 0.0 102010
06:00+9e1193100 0.0 102121
09:00+12ene2377100 0.0 1021659
12:00+16e355439 0.0 10191267
15:00+18e56427 0.1 10181247
18:00+14ene225599 0.0 1018110
21:00+11nw016867 0.0 101910
14 april, wed
wed1400:00+10s117040 0.0 101710
03:00+10sse116891 0.0 101411
06:00+9nw3375100 0.1 101566
09:00+13nnw2270100 0.1 1016516
12:00+13nne3371100 0.6 1015595
15:00+13n3375100 1.4 1015671
18:00+11w2378100 1.8 1016206
21:00+10w348052 2.5 1017205
15 april, thu
thu1500:00+9w2275100 0.0 101716
03:00+10sw2270100 0.0 101616
06:00+10wnw237399 0.0 101664
09:00+14nnw2258100 0.0 1015586
12:00+17n335228 0.0 10141223
15:00+17nnw445492 0.1 10131282
18:00+16nne225923 0.0 1013128
21:00+12w11773 0.7 101511